TimeEDT,TemperatureF,Dew PointF,Humidity,Sea Level PressureIn,VisibilityMPH,Wind Direction,Wind SpeedMPH,Gust SpeedMPH,PrecipitationIn,Events,Conditions,WindDirDegrees,DateUTC
12:53 AM,70.0,64.9,84,29.95,10.0,WSW,8.1,-,N/A,,Clear,250,2013-05-12 04:53:00
1:53 AM,70.0,64.0,81,29.94,10.0,SSW,4.6,-,N/A,,Mostly Cloudy,210,2013-05-12 05:53:00
2:53 AM,69.1,64.9,87,29.92,10.0,SW,4.6,-,N/A,,Mostly Cloudy,230,2013-05-12 06:53:00
3:53 AM,69.1,64.9,87,29.91,10.0,SW,8.1,-,N/A,,Partly Cloudy,230,2013-05-12 07:53:00
4:53 AM,68.0,64.9,90,29.90,10.0,SSW,8.1,-,N/A,,Clear,210,2013-05-12 08:53:00
5:47 AM,68.0,64.4,88,29.91,10.0,SW,6.9,-,N/A,,Mostly Cloudy,230,2013-05-12 09:47:00
5:53 AM,68.0,64.9,90,29.91,10.0,SW,8.1,-,N/A,,Mostly Cloudy,230,2013-05-12 09:53:00
6:26 AM,66.2,64.4,94,29.92,10.0,WSW,6.9,-,N/A,,Mostly Cloudy,250,2013-05-12 10:26:00
6:48 AM,68.0,64.4,88,29.93,10.0,WSW,6.9,-,N/A,,Mostly Cloudy,250,2013-05-12 10:48:00
6:53 AM,68.0,64.9,90,29.93,10.0,WSW,8.1,-,N/A,,Mostly Cloudy,250,2013-05-12 10:53:00
7:50 AM,69.8,64.4,83,29.95,10.0,West,10.4,-,N/A,,Mostly Cloudy,260,2013-05-12 11:50:00
7:53 AM,69.1,64.9,87,29.95,10.0,West,11.5,-,N/A,,Mostly Cloudy,270,2013-05-12 11:53:00
8:50 AM,71.6,64.4,78,29.96,10.0,West,10.4,-,N/A,,Scattered Clouds,280,2013-05-12 12:50:00
8:53 AM,71.1,64.0,78,29.96,10.0,West,9.2,-,N/A,,Scattered Clouds,270,2013-05-12 12:53:00
9:53 AM,73.9,63.0,68,29.96,10.0,WNW,9.2,-,N/A,,Partly Cloudy,290,2013-05-12 13:53:00
10:53 AM,77.0,61.0,58,29.96,10.0,West,12.7,-,N/A,,Scattered Clouds,280,2013-05-12 14:53:00
11:53 AM,78.1,60.1,54,29.96,10.0,WNW,12.7,-,N/A,,Scattered Clouds,290,2013-05-12 15:53:00
12:53 PM,81.0,59.0,47,29.95,10.0,West,13.8,27.6,N/A,,Scattered Clouds,280,2013-05-12 16:53:00
1:53 PM,81.0,54.0,39,29.95,10.0,West,16.1,24.2,N/A,,Scattered Clouds,260,2013-05-12 17:53:00
2:53 PM,82.9,48.0,29,29.94,10.0,WNW,10.4,23.0,N/A,,Partly Cloudy,300,2013-05-12 18:53:00
3:53 PM,81.0,48.0,31,29.93,10.0,NW,15.0,-,N/A,,Scattered Clouds,310,2013-05-12 19:53:00
4:53 PM,82.9,48.9,31,29.92,10.0,NW,17.3,-,N/A,,Scattered Clouds,310,2013-05-12 20:53:00
5:53 PM,81.0,50.0,34,29.94,10.0,West,13.8,20.7,N/A,,Scattered Clouds,270,2013-05-12 21:53:00
6:53 PM,79.0,48.9,35,29.94,10.0,NW,10.4,-,N/A,,Mostly Cloudy,310,2013-05-12 22:53:00
7:53 PM,75.9,51.1,42,29.96,10.0,NW,6.9,-,N/A,,Mostly Cloudy,310,2013-05-12 23:53:00
8:53 PM,72.0,51.1,48,29.98,10.0,WNW,5.8,-,N/A,,Mostly Cloudy,290,2013-05-13 00:53:00
9:53 PM,69.1,51.1,53,30.01,10.0,WNW,6.9,-,N/A,,Scattered Clouds,300,2013-05-13 01:53:00
10:53 PM,66.0,50.0,56,30.03,10.0,NW,5.8,-,N/A,,Clear,320,2013-05-13 02:53:00
11:53 PM,66.0,46.9,50,30.03,10.0,NNW,6.9,-,N/A,,Clear,330,2013-05-13 03:53:00